OPS 4682 DEB, 18269

Orbit data source: Space-Track

OPS 4682 DEB, 18269 is space debris in LEO originally from a launch on Sat, 03 Apr 1965 UTC launched from the Air Force Western Test Range (AFWTR). Debris objects in space refer to the collection of defunct objects orbiting the Earth. Examples of debris include non-operational satellites, rocket bodies, and fragments generated from explosions, collisions, or faulty payload assembly.

Loading next visibility...
Identifier
18269, 1965-027Y
Orbit
LEO
Country
Flag of USUS
Related business
Manufacturer
Unknown
Mission
Spacecraft
Bus & Motor
Unknown
Mass
Unknown
Launch date (UTC)
1965-04-03 (61 years ago)
Launch vehicle
Unknown
Launch site
Air Force Western Test Range (AFWTR)
Object type
Payload
Rocket body
Debris
Shape & HBR
Unknown shape, 0.1 m
Radar Cross Section
Small (<0.1 m²)

Expand to show TLE details & history
Last TLE update: 1 month ago

TLE from 1 month ago
0 OPS 4682 DEB
1 18269U 65027Y   26026.22750212  .00000351  00000-0  12083-2 0  9998
2 18269  90.2560  10.2088 0030801 191.4153 168.6272 12.95879205551501
Epoch: 2026-01-26T05:27Z
TLE epoch observation values (Epoch: 2026-01-26T05:27:36.183Z)
Latitude
0.00003°
Longitude
162.78176°
Altitude
1,304.279 km
Speed
7.194 km/s
True Right ascension
00h 40m 50s
True Declination
0° 00' 00"
Sunlit
Object was in daylight at epoch
Visualization orbit readout
Latitude
Unknown
Longitude
Unknown
Altitude
Unknown
Speed
Unknown
Apparent Right ascension
Unknown
Apparent Declination
Unknown
Sunlit
N/A
Visualization observer readout
Local Sidereal Time
15:49:26
Azimuth
Unknown
Elevation
Unknown
Doppler factor
Unknown
Orbital elements
Apogee altitude
1,298.982 km
Perigee altitude
1,251.834 km
Semi-major axis
7,653.545 km
Eccentricity
0.00308
Inclination
90.256°
RAAN
10.2088°
Arg. of periapsis
191.4153°
True anomaly
168.69654°
Mean anomaly
168.6272°
Eccentric anomaly
168.6619°
Mean motion
3.24152 °/min
Orbital period
111.06 mins
BSTAR
0.0012083
Loading maneuver chart data...
Computing Atmospheric mass density...
Loading historical data...
Loading historical data...
Loading historical data...
Loading historical data...
Loading historical data...
Loading historical data...
Loading historical data...

Documentation

Showing up to 5 results
|